Flag for Australia Weather past 2 weeks in Sydney, New South Wales, Australia

Now
55 °F

Clear.


Feels Like: 54 °F
Forecast: 45 / 67 °F
Wind: 7 mph from West

Location: Sydney Airport

Current Time: Sep 1, 2015 at 10:16:17 PM

Latest Report: Sep 1, 2015 at 9:30 PM


Visibility: 10 mi

Pressure: 29.98 "Hg

Humidity: 67%

Dew point: 45 °F

Location of SydneyLocation

Historic Weather in Sydney — Graph

°F

Sydney temperature yesterday

Maximum temperature yesterday: 61 °F (at 10:30 AM)
Minimum temperature yesterday: 50 °F (at 6:00 AM)
Average temperature yesterday: 57 °F

Past Weeks' High & Low Weather Summary

 TemperatureHumidityPressure
High82 °F (Aug 22, 1:30 PM)100% (Aug 23, 8:30 PM)30.36 "Hg (Aug 23, 8:30 PM)
Low46 °F (Aug 30, 3:00 AM)23% (Aug 22, 3:00 PM)29.86 "Hg (Aug 25, 2:00 AM)
Average59 °F65%30.09 "Hg
* Reported Aug 17 9:00 PM — Sep 1 9:00 PM, Sydney, Weather by CustomWeather, © 2015

Note: Actual official high and low records may vary slightly from our data, if they occured in-between our weather recording intervals... More about our weather records

Advertising

Sydney weather history for previous 24 hours

 ConditionsComfort  
Time TempWeatherWind HumidityBarometerVisibility
9:00 PM
Tue, Sep 1
54 °FClear.7 mph72%29.98 "Hg10 mi
8:30 PM55 °FClear.7 mph77%29.98 "Hg10 mi
8:00 PM57 °FClear.6 mph63%29.95 "Hg10 mi
7:30 PM57 °FClear.6 mph59%29.95 "Hg10 mi
7:00 PM57 °FClear.6 mph55%29.95 "Hg10 mi
6:30 PM57 °FClear.6 mph51%29.95 "Hg10 mi
6:00 PM57 °FClear.7 mph51%29.92 "Hg10 mi
5:30 PM59 °FClear.6 mph48%29.92 "Hg10 mi
5:00 PM59 °FClear.8 mph48%29.92 "Hg10 mi
4:30 PM61 °FSunny.10 mph45%29.92 "Hg10 mi
4:00 PM61 °FSunny.10 mph42%29.92 "Hg10 mi
3:30 PM63 °FSunny.12 mph39%29.92 "Hg10 mi
3:00 PM61 °FSunny.10 mph42%29.92 "Hg10 mi
2:30 PM61 °FSunny.10 mph42%29.92 "Hg10 mi
1:30 PM61 °FSunny.9 mph39%29.92 "Hg10 mi
1:00 PM61 °FSunny.8 mph45%29.95 "Hg10 mi
12:30 PM61 °FSunny.9 mph42%29.95 "Hg10 mi
12:00 PM61 °FSunny.10 mph48%29.95 "Hg10 mi
11:30 AM61 °FPassing clouds.8 mph42%29.98 "HgN/A
11:00 AM61 °FPassing clouds.9 mph39%29.98 "HgN/A
10:30 AM61 °FPassing clouds.12 mph42%29.98 "HgN/A
10:00 AM59 °FSunny.13 mph45%29.98 "Hg10 mi
9:30 AM57 °FSunny.15 mph44%29.98 "Hg10 mi
9:00 AM57 °FPassing clouds.15 mph44%29.98 "HgN/A
8:30 AM54 °FPassing clouds.17 mph51%29.98 "HgN/A
8:00 AM54 °FPassing clouds.15 mph54%29.98 "HgN/A
7:00 AM50 °FPassing clouds.15 mph67%29.98 "HgN/A
6:30 AM50 °FPassing clouds.16 mph62%29.98 "HgN/A
6:00 AM48 °FPassing clouds.12 mph71%29.98 "HgN/A
5:30 AM48 °FSunny.8 mph71%29.95 "Hg10 mi
5:00 AM48 °FClear.8 mph76%29.95 "Hg10 mi
4:30 AM48 °FClear.9 mph76%29.95 "Hg10 mi
4:00 AM48 °FClear.8 mph82%29.95 "Hg10 mi
3:00 AM50 °FClear.7 mph67%29.95 "Hg10 mi
2:30 AM50 °FClear.6 mph71%29.95 "Hg10 mi
2:00 AM50 °FClear.10 mph71%29.98 "Hg10 mi
1:00 AM50 °FClear.6 mph76%29.98 "Hg10 mi
12:30 AM52 °FClear.7 mph72%29.98 "Hg10 mi
12:00 AM54 °FClear.8 mph58%29.98 "Hg10 mi
11:00 PM
Mon, Aug 31
54 °FClear.12 mph67%29.98 "Hg10 mi
10:30 PM55 °FClear.12 mph67%29.98 "Hg10 mi
10:00 PM55 °FClear.12 mph67%29.98 "Hg10 mi
Weather by CustomWeather, © 2015

See weather overviewHow to use our weather pages